GFSSE_850_temp_096.txt.gz
Temp
22 23 23 23 23 23 23 22 21 21 20 20 20 20 20 20 19 18 18 17 17 17 17 18 17 17 17 16 16 17 16 16 16 15 15 15 15 16 16 16 16 16 15
24 23 23 22 23 23 23 22 21 20 20 20 20 19 19 19 19 19 18 18 17 17 17 17 17 16 16 16 16 16 16 16 16 16 15 15 15 15 15 15 16 15 15
25 24 23 22 23 23 23 22 21 20 20 19 19 19 19 19 19 18 18 18 17 17 17 17 16 16 16 16 16 16 16 16 16 16 15 15 15 15 15 15 15 15 15
25 24 23 23 22 22 22 22 21 20 19 19 19 18 18 18 18 18 18 18 17 17 17 16 16 16 16 16 16 16 16 16 15 15 15 15 15 15 15 15 15 15 14
25 24 23 23 22 22 22 22 21 20 19 18 18 18 18 17 17 17 18 17 17 16 16 16 15 15 16 16 15 15 15 15 15 15 15 14 15 15 15 15 14 14 14
24 23 23 23 22 22 22 21 21 20 19 18 18 18 18 17 17 17 17 17 16 16 16 16 15 16 16 15 15 15 15 15 15 15 15 15 15 15 15 14 14 14 14
24 23 23 22 22 22 21 21 20 20 19 18 18 17 17 17 16 16 16 16 16 16 16 16 16 16 15 15 15 15 15 15 15 14 15 15 15 14 14 14 14 14 14
24 23 23 22 22 22 21 21 20 20 19 18 18 17 17 17 16 16 16 15 16 16 16 16 15 15 15 15 15 14 14 14 14 14 14 14 14 14 14 14 14 14 14
24 23 23 22 22 21 21 21 20 20 19 18 18 18 17 17 16 16 15 15 15 16 16 15 16 16 16 15 15 15 14 14 14 14 14 14 14 14 14 13 13 13 13
24 23 23 22 22 22 21 21 20 20 19 18 18 18 17 17 16 15 15 15 15 15 15 15 16 15 16 16 15 15 14 14 13 13 13 14 13 14 13 13 13 13 13
22 22 22 22 22 21 21 21 20 19 19 18 18 18 17 16 16 15 15 15 14 14 14 15 15 15 15 15 15 16 14 13 13 13 14 14 13 13 13 13 13 13 13
22 22 21 22 21 21 21 20 20 20 19 18 18 18 17 16 16 15 15 14 14 14 14 14 15 14 14 14 14 14 15 13 13 13 13 13 13 13 13 13 13 13 12
21 22 21 21 21 21 21 20 20 20 19 18 17 17 17 16 16 15 15 14 14 14 14 14 14 14 14 15 14 13 13 14 13 13 13 13 13 13 13 13 12 12 12
21 21 21 21 21 21 21 20 20 20 19 19 18 17 17 17 16 15 15 15 14 14 14 15 15 14 14 14 13 12 12 13 13 13 12 13 13 13 13 13 12 11 11
21 21 21 21 21 20 20 20 20 19 19 19 18 17 18 17 16 15 15 15 14 14 15 14 14 14 14 13 12 12 12 13 13 13 12 12 13 13 13 13 11 10 10
21 21 21 20 20 20 20 20 20 19 19 18 18 17 18 17 16 15 15 14 14 14 14 14 13 13 13 12 12 11 12 12 13 13 12 12 12 12 13 12 11 10 10
22 22 21 21 20 20 20 20 19 20 18 18 18 17 17 16 15 14 14 14 14 13 13 13 12 12 12 12 12 11 11 11 12 13 12 12 12 12 12 12 10 9 9
22 22 21 21 20 20 19 19 19 19 19 18 17 16 17 16 14 14 14 14 13 13 13 13 12 12 11 11 12 11 11 11 11 12 12 12 12 12 11 11 9 9 8
22 22 22 21 20 20 19 19 19 19 19 18 16 16 16 15 14 14 14 14 13 13 13 13 12 11 11 11 11 11 11 11 11 12 12 12 12 12 11 10 9 8 8
21 22 22 21 21 20 20 19 18 18 18 16 16 16 15 15 14 13 13 13 13 13 13 13 12 11 11 11 11 11 10 10 11 11 12 11 11 11 11 10 9 8 8
21 21 22 21 21 20 19 19 18 18 18 16 16 16 15 14 14 13 13 13 13 13 13 12 11 11 11 11 10 10 10 10 10 11 11 11 12 11 10 10 9 8 8
21 21 21 21 20 20 20 19 19 17 17 17 17 16 15 14 14 13 14 13 13 12 12 12 12 11 11 11 11 10 10 9 10 10 10 11 11 11 10 10 9 8 8
21 21 21 21 21 20 20 19 18 18 18 15 15 15 14 12 13 12 12 13 12 12 12 12 12 12 12 11 11 10 9 9 10 9 9 11 11 11 10 10 10 9 9
20 21 20 21 20 20 20 19 19 19 18 18 16 15 14 11 12 11 11 12 12 12 12 12 12 12 12 12 10 10 11 11 9 9 9 10 11 11 10 10 9 9 9
18 20 20 20 19 20 19 19 20 17 17 17 15 15 14 12 12 12 11 11 12 12 12 12 12 12 12 12 12 11 10 10 10 9 9 9 10 10 10 10 10 10 10
16 17 17 20 19 19 18 19 18 18 17 15 15 14 13 13 12 12 11 11 11 12 11 11 11 12 12 12 11 11 10 11 10 10 10 10 10 10 10 10 10 10 10

GFSSE_850_temp_102.txt.gz
Temp
24 23 22 21 20 21 21 21 21 21 21 21 20 20 19 19 19 19 18 18 18 18 17 17 17 17 16 16 16 16 16 17 17 16 16 16 16 16 16 15 15 15 15
25 23 22 21 21 20 21 21 21 21 21 21 20 20 20 19 19 18 18 18 18 17 17 17 17 17 16 16 16 16 16 16 16 16 16 16 15 16 16 16 15 15 15
24 23 22 21 21 21 21 21 21 20 21 21 20 20 20 19 19 18 18 18 17 17 17 17 16 16 16 16 16 16 16 16 16 16 16 16 15 15 15 15 15 15 15
25 24 23 21 20 20 20 20 20 20 20 20 20 20 19 19 18 18 18 18 17 17 17 16 16 16 16 16 16 16 16 16 16 16 16 16 15 15 15 15 15 15 15
24 24 22 21 20 20 20 20 19 19 19 19 19 19 19 19 18 18 18 18 18 17 17 16 16 16 16 16 16 16 16 16 15 15 15 15 15 15 15 15 14 14 15
24 23 22 21 21 20 20 20 20 19 19 19 19 19 18 18 18 17 17 17 17 17 17 16 16 16 16 16 16 16 16 16 15 15 15 15 15 14 14 14 15 15 14
24 23 22 22 22 21 21 20 19 18 18 18 18 18 18 18 17 17 17 17 17 17 17 16 16 16 16 16 16 16 16 16 15 15 15 14 15 14 14 14 14 14 14
23 23 23 23 22 22 21 21 19 18 18 18 17 17 17 17 17 17 17 17 16 16 17 16 16 16 16 16 16 16 16 16 15 15 15 14 14 14 14 14 14 14 14
22 22 22 22 22 22 22 21 20 19 18 17 17 17 17 17 17 17 17 16 16 16 16 16 16 16 16 16 16 16 16 16 15 15 14 14 14 14 14 14 14 14 14
22 22 22 22 21 21 21 20 20 19 19 18 17 17 17 16 16 16 16 16 16 16 16 16 16 16 16 16 16 16 15 15 14 14 14 14 14 14 14 14 14 13 13
21 21 21 21 21 21 20 20 20 20 19 18 17 17 16 16 16 16 16 16 16 16 16 15 15 15 15 16 15 15 15 14 14 14 14 13 13 14 14 14 14 13 13
21 21 21 21 21 21 20 20 19 19 19 19 18 17 17 17 16 16 16 16 15 15 15 15 15 15 15 15 15 14 14 14 14 14 14 13 13 14 14 13 13 13 13
20 20 21 21 21 21 21 20 20 19 19 19 18 17 17 16 16 16 16 15 15 15 15 14 14 14 14 15 14 14 14 14 14 14 14 13 13 14 13 13 13 13 13
19 20 20 21 21 21 20 20 21 20 20 20 19 18 18 17 16 16 16 15 15 15 14 14 14 14 14 14 14 14 14 14 14 13 14 14 13 13 13 13 13 13 13
20 19 20 19 19 19 20 20 20 20 21 20 20 19 18 17 17 16 16 15 15 15 14 14 14 14 14 14 14 14 14 13 13 12 13 14 13 13 13 13 13 13 12
20 21 20 20 19 18 19 20 20 20 21 20 20 20 19 18 17 16 16 15 15 14 14 13 13 13 13 13 13 14 13 12 12 11 11 12 12 12 13 13 13 13 12
20 20 20 20 20 19 19 19 19 20 20 20 20 19 19 19 18 16 15 15 14 14 13 13 13 13 13 13 13 13 12 12 12 11 11 11 11 12 12 13 12 12 12
19 19 20 20 21 20 19 19 19 19 19 19 19 19 19 19 17 16 15 15 14 14 13 13 13 13 13 12 12 13 13 11 12 11 11 11 11 12 12 12 12 12 11
19 19 19 19 20 20 21 19 19 19 19 18 18 19 18 18 17 16 16 15 14 13 13 13 12 13 13 12 12 12 12 11 11 11 12 11 11 11 12 12 12 11 11
18 19 19 19 19 20 20 19 19 19 19 18 18 18 18 17 17 16 15 15 14 13 13 12 12 12 12 11 12 12 11 11 11 11 11 11 11 11 11 12 12 11 10
17 18 18 19 19 20 18 17 18 19 19 19 18 18 18 17 17 16 15 15 14 13 13 13 12 12 12 11 11 11 11 10 10 11 11 11 10 11 11 11 11 11 9
15 17 18 19 18 19 19 18 19 19 19 19 19 17 18 17 17 16 15 15 14 12 12 12 12 12 11 11 11 11 10 10 10 10 10 10 10 10 10 11 11 11 10
13 13 16 17 17 18 19 18 16 17 18 16 18 17 17 17 16 16 15 15 14 13 12 12 12 12 11 11 10 11 10 10 10 10 11 10 10 10 10 10 11 10 9
11 13 14 15 16 17 18 17 17 17 19 19 19 19 17 17 17 15 15 14 12 12 12 12 12 12 12 11 10 11 10 11 10 10 10 10 10 10 10 10 11 10 9
9 11 14 14 15 16 16 18 19 19 18 19 19 19 18 18 17 15 14 13 12 11 12 11 12 12 11 11 10 10 10 10 11 11 9 9 10 10 10 10 10 10 9
8 9 14 13 14 15 12 16 18 20 19 18 17 18 18 18 17 16 14 13 13 11 11 12 12 11 11 11 11 11 11 10 10 10 11 10 10 10 9 9 9 9 9

GFSSE_850_temp_105.txt.gz
Temp
24 24 23 22 22 21 21 21 21 21 21 20 20 20 20 20 19 19 19 19 18 18 18 17 17 17 17 17 17 17 17 17 17 16 16 16 16 16 16 16 15 15 15
25 23 23 22 22 21 20 20 21 21 20 20 20 20 19 19 19 19 18 18 18 18 18 17 17 17 17 17 17 17 16 16 16 16 16 16 16 16 16 15 15 15 15
24 23 23 22 22 21 20 20 20 20 20 19 19 19 19 19 19 19 18 18 18 18 17 17 17 17 17 17 16 16 16 17 16 16 16 16 16 15 16 15 15 15 15
24 23 23 22 22 21 20 20 20 20 20 19 19 19 19 19 19 19 18 18 18 17 17 17 17 17 16 16 16 16 16 16 16 16 16 16 15 16 15 15 15 15 15
24 23 23 22 21 21 20 20 20 20 20 19 19 19 19 19 19 18 18 18 18 17 17 17 17 17 16 16 16 16 16 16 16 16 16 16 16 15 15 15 15 15 15
24 23 23 22 21 21 20 20 20 19 19 19 19 19 19 18 18 18 18 18 17 17 17 17 17 17 16 16 16 16 16 16 16 16 16 15 14 14 14 14 15 15 14
24 23 22 22 22 21 21 20 19 19 19 19 18 18 18 18 18 18 17 17 17 17 17 17 17 17 16 16 16 16 16 16 16 15 15 15 15 14 14 15 14 14 14
23 23 22 22 21 21 20 19 19 19 19 18 18 18 18 18 17 17 17 17 17 17 17 17 17 17 16 16 16 16 16 16 15 15 15 15 15 15 14 14 14 14 14
21 22 22 21 20 20 20 19 19 19 19 19 18 18 17 17 17 17 17 17 16 16 16 17 16 16 16 16 16 16 16 16 15 15 15 14 14 14 14 14 14 14 14
20 21 21 21 20 20 19 18 18 19 18 18 18 17 17 17 17 17 16 16 16 16 16 16 16 16 16 16 16 16 15 15 14 15 14 14 14 14 14 14 14 14 14
19 20 20 20 20 20 19 19 18 18 18 18 17 17 17 17 16 16 16 16 16 16 16 16 16 16 16 15 15 15 15 15 14 14 14 14 14 14 14 14 14 14 14
19 19 19 19 19 19 19 19 19 18 18 17 17 17 17 17 16 16 16 16 15 15 15 15 15 15 15 15 15 15 15 14 14 14 14 14 14 14 13 14 14 13 13
20 19 19 19 19 19 19 19 19 19 19 18 17 17 17 17 17 16 16 15 15 15 15 14 14 14 15 15 15 15 15 14 14 14 14 13 14 13 13 13 13 13 13
19 19 19 19 19 19 19 19 20 20 19 19 19 18 17 17 17 17 16 16 15 15 15 14 14 14 14 14 14 14 14 14 14 13 14 13 13 13 13 12 12 13 13
20 20 19 19 18 18 19 19 20 20 20 19 19 19 18 17 18 17 17 16 15 15 14 14 14 14 14 14 14 14 14 14 13 14 13 13 12 12 12 12 12 12 12
20 20 20 19 19 18 19 19 19 20 20 20 19 19 19 18 18 18 17 17 15 15 14 14 14 13 13 13 13 13 13 13 13 13 13 13 13 12 12 12 12 13 13
19 20 19 20 20 19 18 19 19 19 19 19 20 19 19 19 18 18 17 17 16 15 14 14 13 13 13 13 13 13 13 13 12 13 12 12 12 12 12 12 12 12 12
18 18 19 19 20 19 19 19 19 19 19 19 19 19 19 19 19 18 17 17 17 15 14 14 13 13 12 12 13 13 13 12 12 12 12 11 11 11 11 11 12 12 12
17 18 18 18 18 19 19 19 18 18 19 19 19 19 19 19 18 18 17 17 16 15 14 14 13 13 12 12 12 12 12 12 12 11 12 11 10 11 11 12 12 11 12
16 17 17 18 18 18 19 19 18 17 18 19 19 19 18 18 18 18 17 17 16 15 14 14 13 13 12 12 12 12 12 12 12 11 11 11 11 11 11 11 11 11 12
14 16 16 17 18 18 18 18 18 19 18 18 18 19 18 17 17 17 17 17 16 16 14 14 13 12 12 12 11 11 11 11 11 11 11 11 11 11 11 11 11 11 11
12 13 14 15 17 18 18 18 18 18 17 19 18 18 18 17 17 16 17 17 16 15 14 14 13 12 12 12 11 11 11 11 11 10 11 11 11 11 11 11 11 10 11
11 12 13 14 14 15 17 15 13 13 12 13 14 18 18 18 17 17 17 17 16 15 14 13 12 12 12 11 11 11 10 10 10 11 11 11 11 11 11 10 10 10 11
11 11 11 13 13 14 14 13 12 13 12 13 17 19 19 19 17 17 16 17 16 15 14 12 11 12 12 11 11 11 11 11 11 10 11 11 11 11 10 11 10 10 10
9 10 11 11 12 13 13 13 12 12 13 14 14 18 19 19 18 16 16 16 15 15 14 12 11 11 11 11 11 11 11 10 10 11 11 12 11 11 10 10 10 10 10
6 7 8 10 12 13 12 13 12 12 12 12 12 15 18 19 18 17 16 16 16 15 14 12 11 11 11 11 11 11 11 11 10 11 11 11 11 11 10 10 10 10 9

GFSSE_850_temp_108.txt.gz
Temp
23 23 23 22 22 22 21 21 21 20 20 20 20 20 19 19 20 20 19 19 19 18 18 18 18 18 18 17 17 17 17 17 17 17 16 17 17 16 16 16 15 15 15
22 24 23 23 22 22 21 21 21 20 20 20 20 19 19 19 19 19 19 19 18 18 18 18 18 17 17 17 17 17 17 16 16 16 16 16 16 16 17 16 15 15 15
23 24 23 23 22 21 21 21 21 20 20 20 20 19 19 19 19 19 19 18 18 18 18 18 18 17 17 17 17 17 17 16 16 16 16 15 16 16 16 17 16 16 15
21 24 23 23 22 21 21 21 21 20 20 19 19 19 19 19 19 18 18 18 18 18 17 18 18 17 17 17 17 17 17 16 16 16 15 15 14 15 16 15 15 15 15
19 23 23 23 22 21 21 21 21 20 20 19 19 19 18 18 18 18 18 18 18 18 17 18 17 17 17 17 17 17 16 16 16 16 16 16 15 15 15 15 15 15 15
19 20 23 23 22 22 21 21 20 20 20 19 19 19 19 18 18 18 18 17 17 17 17 17 17 17 17 17 17 17 17 16 16 16 16 15 15 15 15 15 15 15 15
18 19 22 22 22 21 21 20 20 20 19 19 19 19 19 18 18 18 18 18 17 17 17 17 17 17 16 16 16 16 16 16 16 16 16 15 15 15 15 15 15 14 15
18 17 21 21 21 21 20 20 19 19 19 19 19 19 18 18 18 17 17 17 17 17 17 17 17 17 16 16 16 16 16 16 15 16 15 14 14 15 15 15 15 14 15
20 19 18 20 19 20 20 19 19 19 18 18 18 18 18 18 18 17 17 17 17 17 17 16 16 16 16 16 16 16 16 15 14 15 15 14 14 15 14 14 14 14 14
20 21 20 19 19 19 19 19 18 18 18 18 18 18 18 18 18 17 17 17 17 16 16 16 16 16 16 15 15 16 16 15 14 15 14 15 14 14 14 14 14 14 14
19 20 19 20 19 19 19 18 18 17 17 17 17 17 17 17 17 17 17 16 16 16 16 16 16 16 16 15 15 15 15 14 14 15 15 14 14 14 14 14 14 14 13
17 19 19 19 19 19 18 18 18 17 17 17 17 16 16 16 15 15 15 16 16 16 16 15 15 15 15 14 15 15 14 14 14 14 14 14 14 14 14 14 14 14 13
18 17 19 19 19 19 19 17 18 18 16 15 16 15 14 15 15 14 15 15 15 15 15 15 15 15 14 14 14 13 13 13 14 14 13 14 14 14 14 13 14 13 13
18 17 18 19 19 19 19 18 16 15 18 18 18 16 15 15 15 15 15 15 14 14 14 14 14 14 14 14 13 13 13 13 13 13 14 14 14 14 13 13 13 14 13
18 18 16 17 19 19 19 17 17 16 18 19 18 15 15 16 16 15 15 15 15 15 14 14 14 14 13 13 13 13 13 13 14 14 13 14 13 13 13 12 12 13 13
19 18 17 16 18 19 19 19 19 18 17 19 19 15 16 15 17 17 15 14 15 14 14 14 14 14 14 13 13 13 13 13 14 13 12 13 13 14 13 12 12 12 12
17 17 17 16 15 16 18 19 19 19 19 17 17 18 16 16 15 18 17 16 15 14 14 14 14 13 13 13 13 13 13 13 13 13 13 13 13 13 13 11 11 13 11
17 18 18 18 17 15 15 16 17 17 18 18 18 18 19 19 16 18 18 17 17 15 14 15 14 14 14 13 13 12 12 12 13 13 13 13 12 12 12 12 11 11 11
16 17 18 18 18 18 16 15 15 15 15 16 16 19 20 19 19 19 18 17 17 16 15 15 15 13 13 13 13 13 12 12 12 13 12 12 12 11 10 11 11 11 11
12 16 17 17 18 18 16 14 15 15 14 15 16 18 19 19 19 19 18 17 17 16 15 15 15 14 13 13 13 12 12 12 12 12 12 12 11 11 10 10 10 11 11
10 12 13 15 15 16 17 15 15 15 18 15 15 17 17 18 19 18 18 17 17 16 16 15 15 14 12 13 12 12 12 12 12 12 12 12 12 12 11 10 11 10 10
9 10 12 12 13 13 12 13 15 15 14 14 14 13 17 18 19 18 18 17 17 16 16 15 15 14 13 12 12 12 11 11 11 12 12 12 12 11 11 11 11 11 11
8 8 10 10 12 12 12 13 13 14 14 14 13 13 18 19 19 19 18 17 17 16 17 16 15 15 13 12 12 11 11 11 11 11 12 12 12 11 11 10 12 11 11
7 6 6 8 10 11 11 10 10 13 15 15 14 14 16 18 19 18 18 17 16 16 16 16 16 15 13 12 12 11 12 11 11 11 11 12 11 11 11 11 11 11 11
6 5 5 6 7 9 11 11 10 10 13 15 14 13 12 15 17 17 18 17 16 16 15 16 15 14 13 11 13 12 11 11 11 11 12 11 12 12 11 11 11 11 10
4 5 6 7 6 7 9 10 11 11 9 13 14 14 13 13 14 14 16 17 17 16 15 15 15 14 13 11 11 11 12 11 11 11 10 11 11 11 12 12 11 10 10

GFSSE_850_temp_114.txt.gz
Temp
25 25 25 25 25 24 24 23 23 22 22 22 21 20 20 20 20 20 20 20 20 19 19 19 18 18 18 18 18 18 17 18 17 17 17 17 17 17 17 16 16 16 16
24 24 24 24 24 24 23 23 22 22 22 21 21 20 20 20 20 20 20 20 19 19 19 18 18 18 18 18 18 18 18 17 17 17 17 17 17 17 16 15 15 15 16
23 23 23 23 23 23 23 23 22 22 22 21 20 20 20 20 20 19 19 19 19 19 18 18 18 18 17 18 17 17 17 17 17 17 17 17 17 16 16 16 15 15 16
22 23 22 23 22 22 22 22 22 22 22 21 20 20 20 19 19 19 19 19 19 18 18 18 18 17 17 17 17 17 17 17 17 16 16 15 17 16 16 16 15 15 15
22 22 22 22 22 22 22 22 22 22 21 21 20 20 19 19 19 19 19 18 18 18 18 17 17 17 17 17 17 17 17 17 17 16 16 16 16 16 16 16 15 15 15
22 21 22 21 21 21 21 22 21 21 21 20 20 20 19 19 19 19 19 18 18 18 17 17 17 17 17 16 16 16 16 17 16 16 16 16 15 16 16 16 16 15 15
21 21 21 21 21 21 21 21 21 21 20 20 20 19 19 19 19 18 18 18 18 17 17 17 17 17 17 17 16 16 16 17 16 15 15 14 15 16 16 15 15 15 15
21 21 20 20 20 21 20 20 20 20 20 20 19 19 19 19 19 18 18 18 17 17 17 17 17 17 17 16 16 16 16 16 16 16 16 16 14 16 16 15 15 15 15
20 20 19 19 20 20 20 20 20 20 20 20 19 19 19 19 19 18 18 18 17 17 17 16 16 16 16 16 16 16 16 16 16 16 15 15 15 16 16 15 15 15 15
19 19 18 19 20 19 19 19 19 19 19 19 19 19 19 18 18 18 18 17 17 17 17 17 17 16 16 16 16 16 16 16 17 17 16 15 15 15 15 15 15 14 14
20 18 18 18 19 19 19 19 19 19 19 19 19 18 18 18 18 18 17 17 17 17 17 16 16 16 16 16 16 16 16 16 17 17 15 15 15 16 15 15 15 14 14
21 19 18 17 17 18 18 19 18 18 18 18 18 18 18 18 17 17 17 17 17 17 16 16 16 16 16 15 15 16 16 16 16 16 15 15 15 15 15 15 14 14 13
23 20 19 18 16 17 16 17 18 18 18 18 18 18 18 17 16 16 16 16 16 16 16 16 16 16 16 15 15 15 15 16 15 14 15 15 15 15 16 14 14 14 14
22 20 19 19 18 16 16 16 17 17 18 17 17 17 17 17 16 16 16 16 16 16 16 16 16 16 15 15 15 14 15 15 14 14 15 14 14 15 15 14 15 14 13
22 21 19 17 17 17 16 16 16 17 16 17 16 17 17 16 16 16 16 16 16 17 17 16 15 15 15 15 15 14 15 14 14 14 14 15 15 15 15 14 13 13 13
21 20 20 18 17 16 17 16 16 17 17 17 17 16 16 16 16 16 16 16 17 16 17 17 15 15 14 15 14 14 14 14 14 14 15 15 14 15 15 15 14 14 13
19 19 18 19 17 16 16 16 16 16 17 16 17 17 16 16 17 16 16 17 17 17 17 17 16 15 15 15 15 15 15 14 14 14 14 13 14 14 14 14 15 14 13
18 17 16 17 17 17 16 16 16 16 16 17 17 16 17 17 16 16 16 17 17 17 17 17 16 16 15 15 15 15 14 14 14 14 13 13 13 15 14 14 14 14 13
15 15 14 14 15 16 16 16 16 15 16 16 16 17 16 17 16 16 17 17 17 16 16 16 16 16 15 15 14 14 14 14 13 13 13 13 13 14 14 13 13 13 12
14 13 12 12 12 13 15 16 16 16 16 16 16 17 17 16 16 16 16 17 17 17 16 16 15 16 15 15 15 14 14 13 13 13 13 13 13 13 13 13 13 12 12
13 12 11 11 11 11 12 13 14 15 16 16 16 16 16 16 16 16 16 15 16 17 18 16 15 15 15 15 14 14 14 14 13 13 13 12 12 12 13 13 13 13 12
11 10 10 10 10 10 10 11 12 14 15 15 16 17 16 16 16 16 16 15 16 16 17 16 15 15 15 14 13 13 12 13 13 13 12 13 12 12 12 13 13 13 12
11 9 9 8 9 9 9 10 10 11 12 15 15 16 16 16 16 16 15 16 15 15 16 17 15 15 15 13 13 13 12 13 13 12 12 12 12 12 12 12 13 13 13
10 9 8 7 7 7 9 10 9 9 10 12 14 15 15 15 16 16 15 15 15 15 15 15 14 16 14 12 13 13 13 14 13 13 12 12 12 12 12 11 12 12 12
9 7 6 6 6 6 7 8 9 9 9 10 12 14 15 16 15 16 16 15 14 14 14 15 14 14 14 14 12 13 12 13 13 14 13 12 12 12 12 12 12 11 11
7 6 5 4 4 5 6 7 7 7 8 9 10 11 14 15 15 15 15 15 15 14 13 14 13 13 13 14 12 12 13 12 13 13 13 13 13 13 13 13 12 11 12

GFSSE_850_temp_117.txt.gz
Temp
24 25 25 25 24 24 24 23 23 22 22 21 21 21 21 20 21 20 20 20 20 20 19 19 18 18 17 17 17 17 16 16 17 17 17 16 16 16 16 17 16 16 16
24 24 24 24 24 24 24 23 23 22 22 22 21 21 20 20 20 20 20 20 19 19 19 18 18 18 17 17 17 17 17 17 17 17 16 17 17 17 16 16 16 16 16
23 23 23 24 24 24 23 23 23 22 22 22 21 20 20 20 20 20 19 19 19 19 18 18 18 18 17 17 17 17 17 16 16 16 17 17 17 16 16 16 15 15 15
22 22 22 23 23 23 23 23 22 22 22 22 21 20 20 20 20 19 19 19 19 19 18 18 17 17 17 17 17 17 17 16 16 16 17 16 16 16 16 15 15 15 15
22 22 22 22 22 22 22 22 22 22 22 21 21 20 20 20 19 19 19 19 19 18 18 18 18 18 17 17 17 17 16 16 16 16 15 16 15 16 16 16 15 15 15
22 21 22 21 22 22 22 22 21 22 21 21 21 20 20 19 19 19 19 18 18 18 18 18 18 17 17 17 17 16 16 16 16 15 15 15 15 14 15 16 15 15 15
21 21 21 21 21 22 21 21 21 21 21 21 20 20 20 19 19 19 19 18 18 18 17 17 17 17 17 17 16 16 16 16 16 16 16 16 16 15 14 15 16 15 15
21 21 21 21 21 21 21 21 21 21 21 20 20 20 19 19 19 19 19 18 18 17 17 17 17 17 17 17 16 16 16 16 15 16 16 15 16 16 14 15 16 15 14
21 20 20 20 20 20 20 20 20 20 20 20 20 19 19 19 19 19 18 18 18 18 17 17 17 17 17 17 17 16 15 16 16 15 15 16 16 15 14 15 15 15 14
21 21 19 19 19 20 20 20 20 20 20 20 19 19 19 18 18 18 18 18 17 17 17 17 16 16 16 16 16 16 16 16 15 15 15 16 15 15 15 15 15 15 15
21 20 21 20 19 19 19 19 19 19 19 19 19 19 19 18 18 18 18 18 17 17 17 16 16 16 16 16 16 16 16 16 15 15 15 15 15 15 15 15 15 15 15
21 20 20 20 20 19 19 19 19 19 19 19 19 19 19 19 18 18 18 18 17 17 17 16 16 16 16 16 16 16 16 15 15 15 15 15 15 16 15 15 15 14 14
22 20 19 20 19 19 19 18 18 18 18 18 18 18 18 18 18 18 17 17 17 17 17 16 16 16 17 16 16 16 16 16 15 15 15 14 15 15 15 15 15 15 14
21 21 20 19 18 18 18 18 17 17 18 18 18 18 18 18 18 18 17 17 17 17 16 17 16 16 16 16 16 16 16 15 15 14 14 15 15 16 15 15 16 15 14
21 20 19 19 18 18 16 16 16 16 18 18 17 18 17 17 18 18 17 16 17 17 16 17 17 16 16 15 15 15 15 14 14 14 14 15 15 15 15 15 15 15 15
20 19 17 17 16 16 16 16 16 16 18 17 17 17 17 17 17 17 16 16 16 17 17 16 17 16 16 15 15 15 14 14 14 14 14 14 15 15 15 15 16 15 15
18 18 18 17 16 15 16 15 16 15 15 15 16 16 17 17 17 16 16 16 17 16 16 16 16 16 15 15 14 14 14 14 14 14 14 14 14 14 15 15 15 15 14
17 16 17 16 16 16 15 15 15 16 15 15 15 17 16 16 17 16 16 16 16 16 16 16 16 16 15 15 15 15 15 14 15 14 14 14 14 14 14 14 14 14 13
16 16 16 17 17 16 16 15 15 15 16 16 16 16 16 16 16 16 16 16 16 16 16 16 16 16 16 16 15 15 15 14 14 14 13 14 13 14 14 13 13 13 13
15 15 15 16 15 15 15 15 15 15 15 16 16 15 15 15 16 16 16 16 16 16 16 16 16 16 16 16 15 15 15 14 14 14 13 13 14 13 13 13 13 13 13
13 13 13 12 13 13 13 14 15 15 16 15 15 15 15 15 15 16 16 16 16 16 16 16 16 16 15 15 15 14 14 14 14 13 14 14 13 13 13 13 13 13 13
11 11 11 11 11 10 11 11 12 13 15 15 15 15 14 15 15 15 16 16 16 16 17 16 15 16 15 15 15 15 14 13 13 13 13 13 14 13 13 13 13 13 13
10 9 10 10 10 9 10 11 11 12 13 14 15 15 15 15 15 15 15 16 15 15 15 16 16 16 16 15 14 15 13 13 14 14 13 13 13 13 13 12 12 12 12
9 9 9 9 8 8 9 10 9 9 10 12 13 14 15 15 15 15 14 14 15 15 14 15 14 16 16 16 14 14 15 16 14 14 14 14 13 13 13 13 12 12 12
8 8 8 8 7 8 8 8 9 10 10 10 11 12 13 14 15 15 14 15 15 14 15 14 14 15 16 15 16 15 14 13 14 15 15 15 13 13 13 12 12 12 11
7 7 7 7 6 6 7 7 7 7 8 9 11 11 11 13 14 15 15 14 14 14 14 14 15 15 15 13 13 14 14 13 13 13 14 14 15 14 14 13 13 12 12

GFSSE_850_temp_120.txt.gz
Temp
24 24 23 23 23 24 24 24 23 23 22 22 21 21 21 21 21 20 20 19 19 19 18 18 17 17 16 16 16 16 16 16 17 17 16 16 16 16 16 16 16 16 15
24 24 24 23 23 23 24 24 23 23 22 22 21 21 21 20 20 20 20 20 19 18 18 17 17 17 16 16 16 16 16 17 17 17 16 16 16 15 16 16 15 16 16
23 23 24 23 23 23 23 23 23 22 22 22 21 21 20 20 20 20 20 19 19 19 18 18 17 17 17 17 16 17 17 17 17 16 16 16 16 16 16 16 16 16 16
24 23 23 23 22 23 23 23 23 22 22 22 21 20 20 20 20 19 19 19 19 19 18 18 18 17 17 17 17 16 16 16 16 16 15 15 15 15 16 16 16 15 16
23 22 22 22 22 22 22 22 22 22 22 22 21 20 20 20 19 19 19 19 19 18 18 18 18 17 17 17 16 16 16 16 16 16 15 15 15 15 14 15 15 15 15
24 22 21 21 22 22 22 22 22 22 22 21 21 20 20 19 19 19 19 19 19 18 18 17 17 17 17 17 16 16 16 16 15 16 15 15 15 15 14 14 15 15 15
23 21 21 21 20 21 21 22 21 21 21 21 21 20 19 19 19 19 19 19 18 18 18 18 17 17 17 17 16 16 16 16 16 15 15 15 15 16 16 16 15 15 15
22 21 20 20 20 20 21 21 21 21 21 21 21 20 19 19 19 19 19 18 18 18 18 17 17 17 17 17 16 16 16 16 16 16 15 15 15 16 16 15 15 15 15
22 21 20 20 20 20 20 20 21 21 20 20 20 20 19 19 19 18 18 18 18 18 17 17 17 17 17 16 16 16 16 16 16 16 16 15 15 16 16 16 15 15 15
22 21 21 20 20 20 20 20 20 20 20 20 20 20 19 19 18 18 18 18 18 18 17 17 16 16 16 16 16 16 16 15 16 16 16 16 16 16 16 16 15 15 15
21 21 21 20 20 20 19 20 20 20 19 19 19 19 19 19 19 19 18 18 18 17 17 17 17 16 16 16 16 16 15 15 16 17 16 16 16 16 16 16 15 14 15
21 20 20 20 20 19 19 19 19 19 19 19 19 19 19 18 18 19 18 18 18 17 17 17 16 16 16 16 16 16 16 15 15 16 16 16 16 16 16 15 15 15 15
21 20 21 20 19 19 19 18 18 19 19 19 19 19 19 18 18 18 18 18 18 17 17 16 16 16 16 16 16 16 15 15 15 15 16 16 15 15 15 15 16 15 15
21 21 20 19 18 18 18 17 18 17 18 18 18 18 18 18 18 18 18 18 18 17 17 17 16 16 16 16 16 16 15 15 15 15 15 15 15 15 15 15 15 14 15
21 20 20 18 17 17 17 17 17 17 17 17 18 18 18 18 18 18 18 18 18 17 17 17 16 16 16 16 16 15 15 15 15 15 15 15 15 15 16 16 15 15 15
19 19 19 17 17 16 16 16 16 16 16 17 18 18 17 18 18 18 17 17 17 17 17 17 16 16 16 16 16 15 15 14 14 14 15 14 15 15 15 15 15 14 15
18 17 17 17 16 16 17 17 15 15 16 16 16 17 17 17 17 17 17 17 17 17 16 16 16 16 16 15 15 15 14 14 14 14 14 14 14 14 14 15 14 14 14
17 16 16 16 15 16 16 16 16 17 17 17 16 14 16 16 15 16 16 16 16 16 16 16 16 16 16 15 15 15 14 14 14 14 14 14 14 14 14 14 14 14 14
16 16 16 16 16 16 16 16 15 15 16 15 14 15 14 13 14 14 15 16 15 15 15 16 16 16 16 15 15 15 14 14 14 14 14 14 14 14 14 14 14 14 14
15 16 16 16 16 16 16 16 16 15 14 15 14 14 13 14 13 14 14 15 15 15 15 15 16 16 16 16 15 15 15 14 14 14 14 14 14 14 14 14 14 14 13
13 14 14 14 14 14 14 15 15 15 15 15 14 14 14 13 13 14 14 15 14 14 15 16 15 15 15 16 15 14 14 14 14 14 14 14 14 14 14 14 13 13 13
11 11 12 12 13 13 14 13 13 14 15 14 14 15 15 14 14 13 13 15 14 15 15 14 15 15 14 15 14 15 14 14 14 14 13 14 14 13 13 13 13 13 13
11 11 11 11 12 13 13 12 12 12 12 14 14 14 14 14 14 14 13 13 14 15 13 15 14 14 13 14 13 15 15 14 14 14 14 14 14 14 14 13 13 13 12
7 9 10 10 11 11 12 12 12 11 11 12 12 13 14 14 15 15 14 14 13 13 14 14 14 14 13 14 12 12 14 16 14 14 14 14 14 14 14 14 13 12 12
7 8 8 8 9 9 10 10 11 11 10 10 11 12 12 13 13 13 14 14 14 13 12 13 14 13 14 14 14 12 12 13 15 16 16 16 14 15 16 15 15 13 12
7 7 8 8 8 8 8 9 9 9 9 10 10 10 11 12 13 13 13 13 14 14 13 13 13 14 14 14 13 13 14 12 14 14 15 16 16 16 16 16 15 15 13

GFSSE_850_temp_123.txt.gz
Temp
24 22 22 22 22 22 23 23 23 23 22 22 21 21 21 21 21 20 19 18 18 18 18 17 17 17 16 16 17 17 16 17 16 16 16 16 16 16 16 16 16 16 15
24 24 22 22 22 22 22 23 23 23 22 22 21 21 21 20 20 20 19 19 19 18 18 18 17 17 17 17 17 17 16 16 16 16 16 16 16 16 15 16 16 16 16
24 23 23 22 22 22 22 22 22 22 22 22 21 21 20 20 20 20 19 19 19 18 18 18 18 17 17 17 17 17 17 16 16 16 16 16 15 15 15 15 15 15 15
23 23 23 22 22 22 22 22 22 22 22 22 21 20 20 20 20 19 19 19 19 18 18 18 18 17 17 17 17 17 17 16 16 16 15 15 15 15 15 16 15 15 15
23 23 22 22 22 22 21 21 21 21 22 21 21 20 20 20 19 19 19 19 18 18 17 17 17 17 16 16 16 17 16 16 16 16 16 16 16 16 16 17 16 15 15
23 22 21 21 21 21 21 21 21 21 21 21 21 20 20 19 19 19 19 19 18 18 18 17 17 17 17 16 16 16 16 16 16 16 16 16 16 16 17 16 15 15 15
22 22 21 21 21 21 21 21 21 21 21 21 20 20 19 19 19 19 19 18 18 18 18 17 17 17 17 17 16 16 16 16 16 16 16 16 16 16 16 15 15 15 15
22 22 21 20 20 20 21 21 21 21 21 20 20 20 19 19 19 18 18 18 18 18 18 18 17 17 17 17 16 16 16 16 16 16 16 16 16 16 16 16 16 15 15
23 22 21 20 20 20 19 20 20 20 20 20 20 20 19 19 18 18 18 18 18 18 18 17 17 17 17 17 16 16 16 16 16 16 16 16 16 16 16 16 15 15 15
22 22 21 20 20 19 19 19 20 20 20 20 20 20 20 19 18 18 18 18 18 18 17 17 17 17 17 17 16 16 16 16 16 16 16 16 16 15 16 16 16 15 15
22 21 21 20 20 19 19 19 19 19 20 20 19 19 19 19 19 18 18 18 17 17 17 17 17 17 16 16 16 16 16 16 16 16 16 16 16 16 16 16 16 15 15
21 21 20 20 19 19 18 18 18 19 19 20 19 19 18 18 18 18 18 18 17 17 17 17 16 16 16 16 16 16 16 16 16 16 16 16 16 16 15 16 16 15 15
21 20 20 20 20 19 18 18 18 18 18 19 19 19 18 18 18 18 17 17 17 17 17 16 16 16 16 16 16 16 16 16 16 16 16 16 16 16 15 15 15 15 15
21 20 20 20 20 18 18 18 17 17 17 18 18 18 18 18 18 18 18 17 17 17 17 16 16 16 16 16 16 16 15 15 16 16 16 16 16 16 15 15 15 15 14
21 21 21 20 20 19 18 17 17 16 16 17 17 17 18 18 18 18 18 18 17 16 16 16 16 16 16 16 16 15 15 15 15 16 15 16 16 15 15 15 15 15 14
20 20 20 19 19 17 16 17 17 17 17 16 16 16 16 17 17 17 17 17 17 17 16 16 16 16 16 16 15 15 15 15 15 15 15 15 15 15 15 15 15 14 14
19 19 19 18 17 17 16 16 16 16 16 16 15 14 14 15 15 16 16 17 17 17 16 15 15 15 15 15 15 15 15 15 15 15 15 15 15 15 15 15 14 14 14
18 17 17 16 16 16 16 16 16 16 16 17 16 15 15 15 15 15 14 15 15 15 15 15 15 15 15 15 14 14 14 14 14 14 14 14 14 15 14 15 14 14 14
16 15 15 15 16 16 16 16 15 15 15 15 14 13 13 15 15 16 15 14 15 14 14 14 15 15 15 15 15 14 14 14 14 14 14 14 14 14 14 14 14 14 14
13 13 14 14 15 15 15 16 16 15 14 14 14 13 13 13 14 15 14 15 14 14 12 13 14 15 15 15 15 15 15 14 14 14 14 14 14 14 14 14 14 14 14
11 11 12 12 13 14 14 15 15 15 15 14 14 13 13 13 13 13 14 14 12 10 12 13 14 15 15 15 15 15 15 15 14 14 14 14 14 14 14 14 13 13 14
8 9 10 11 12 13 14 14 14 14 14 14 14 14 13 13 12 12 11 11 11 12 12 12 12 13 14 14 14 13 13 14 14 14 13 14 14 14 14 14 14 13 13
8 7 7 7 8 9 11 12 12 13 13 13 13 13 13 13 13 12 12 12 12 11 12 12 14 13 13 13 13 13 12 12 14 14 15 14 14 14 14 14 14 13 13
6 7 7 8 7 8 9 11 13 13 13 13 13 13 13 13 13 13 12 12 13 13 13 12 12 14 13 14 12 12 12 13 11 11 13 15 15 14 14 14 14 13 13
5 6 7 7 7 8 8 10 10 10 11 12 11 12 12 12 12 12 12 12 12 12 12 12 12 12 13 12 12 11 12 12 10 11 11 12 15 15 14 14 14 13 13
5 6 6 7 6 6 7 7 7 8 9 10 9 10 10 11 11 11 11 11 11 11 11 11 11 12 11 12 13 14 13 12 10 10 11 12 11 15 16 15 15 14 13